Location: D�rnast
(49.6426°N, 11.9755°E)
Time: 13:15:19
(UTC+00:00)

Meteor 2-15 - Pass Details

Date: 24 January 2021
Orbit: 936 x 955 km, 82.5° (Epoch: 26 February)

Event Time Altitude Azimuth Distance (km) Brightness Sun altitude
Rises 17:35:31 0° 352° (N) 3,647 7.5 -16.2°
Reaches altitude 10° 17:38:06 10° 357° (N) 2,697 6.7 -16.6°
Maximum altitude 17:44:09 55° 74° (ENE) 1,146 4.5 -17.5°
Drops below altitude 10° 17:50:09 10° 152° (SSE) 2,676 6.6 -18.5°
Sets 17:52:41 0° 157° (SSE) 3,616 7.3 -18.9°
